Starlink 5067

operational
NORAD ID: 55653 Int'l Des: 2023-021 Owner: SPXS Country: US Constellation: starlink
LEOCIRCULAR

About Starlink 5067

Description loading...

Live Position

Loading 3D Globe...

Upcoming Passes

Altitude History

Altitude vs Time

uPlot chart will show altitude changes over time

Two-Line Element Set

1 55653U 23021AB 25354.43312765 .00006757 00000-0 57348-3 0 9997
2 55653 70.0017 24.1239 0002945 268.1815 91.9006 14.98335864156922
Epoch: Dec 20, 2025 • Age: 11 hours

Current Status

Altitude 574.6 km
Velocity 7.57 km/s
Sub-Earth Point -0.65°S, 31.12°W
Launch Date Feb 17, 2023
Age 2.8 years
Type internet

Technical Details

Classification Payload
Mass 305.00 kg
Dry Mass 290.00 kg
Total Mass 305.00 kg
Length 0.20 m
Diameter 2.80 m
Span 9.00 m
Shape Box + pan
Manufacturer SPXS
Bus Type Starlink
Phase Status In Orbit
Owner/State SPXS/US

Large Constellations

Loading constellations...